FW2330 Weather Reports


Display with metric or nautical units.
time (UTC)temp
F
wind
direction
speed
MPH
gust
MPH
rain 1hr
in
rain 24hr
in
rain mn
in
humidity
%
barometer
mb
20260505223052 79 26 0.0 0.0 0.00 0.00 0.00 75 1009.3
20260505221548 77 26 0.0 0.0 0.00 0.00 0.00 77 1008.9
20260505220044 76 9 0.0 0.0 0.00 0.00 0.00 77 1008.7
20260505214550 76 25 0.0 0.0 0.00 0.00 0.00 77 1008.8
20260505213043 76 25 0.0 0.0 0.00 0.00 0.00 77 1008.6
20260505211542 76 25 0.0 0.0 0.00 0.00 0.00 77 1008.8
20260505210042 76 25 0.0 0.0 0.00 0.00 0.00 77 1008.6
20260505204545 75 25 0.0 0.0 0.00 0.00 0.00 77 1008.6
20260505203039 76 25 0.0 0.0 0.00 0.00 0.00 77 1008.4
20260505201538 76 25 0.0 0.0 0.00 0.00 0.00 77 1008.4
20260505200043 76 25 0.0 0.0 0.00 0.00 0.00 77 1008.3
20260505194538 76 25 0.0 0.0 0.00 0.00 0.00 77 1008.3
20260505193036 76 25 0.0 0.0 0.00 0.00 0.00 77 1008.1
20260505191537 76 25 0.0 0.0 0.00 0.00 0.00 77 1008.2
20260505190038 76 25 0.0 0.0 0.00 0.00 0.00 77 1008.2
20260505184533 76 25 0.0 0.0 0.00 0.00 0.00 76 1008.3
20260505183035 76 25 0.0 0.0 0.00 0.00 0.00 76 1008.3
20260505181530 76 25 0.0 0.0 0.00 0.00 0.00 76 1008.2
20260505180028 76 25 0.0 0.0 0.00 0.00 0.00 76 1008.4
20260505174532 77 25 0.0 0.0 0.00 0.00 0.00 76 1008.6
20260505173025 77 25 0.0 0.0 0.00 0.00 0.00 75 1008.7
20260505171525 77 25 0.0 0.0 0.00 0.00 0.00 75 1008.8
20260505170020 77 25 0.0 0.0 0.00 0.00 0.00 76 1008.9
20260505164519 77 25 0.0 0.0 0.00 0.00 0.00 75 1009.0
20260505163017 78 25 0.0 0.0 0.00 0.00 0.00 75 1009.2
20260505161515 78 25 0.0 0.0 0.00 0.00 0.00 74 1009.3
20260505153012 78 25 0.0 1.0 0.00 0.00 0.00 75 1009.8
20260505151512 78 25 0.0 1.0 0.00 0.00 0.00 76 1009.7
20260505124507 80 25 0.0 0.0 0.00 0.00 0.00 73 1009.5
20260505123006 80 25 0.0 0.0 0.00 0.00 0.00 72 1009.5
20260505121508 81 25 0.0 0.0 0.00 0.00 0.00 71 1009.5
20260505120007 81 25 0.0 0.0 0.00 0.00 0.00 71 1009.2
20260505114505 82 25 0.0 0.0 0.00 0.00 0.00 70 1008.9
20260505113007 82 25 0.0 2.0 0.00 0.00 0.00 67 1008.8
20260505111511 82 25 1.0 2.0 0.00 0.00 0.00 68 1008.8
20260505101503 83 343 0.0 2.0 0.00 0.00 0.00 68 1008.5
20260505100002 83 341 0.0 2.0 0.00 0.00 0.00 68 1008.5
20260505094503 84 5 1.0 3.0 0.00 0.00 0.00 68 1008.4
20260505093001 85 149 0.0 2.0 0.00 0.00 0.00 68 1007.8
20260505091500 86 153 0.0 2.0 0.00 0.00 0.00 66 1007.8
20260505090101 86 159 0.0 2.0 0.00 0.00 0.00 64 1007.6
20260505084600 87 178 0.0 2.0 0.00 0.00 0.00 64 1007.6
20260505083103 87 178 0.0 2.0 0.00 0.00 0.00 63 1007.4
20260505081615 87 178 0.0 2.0 0.00 0.00 0.00 63 1007.1
20260505080112 87 154 0.0 2.0 0.00 0.00 0.00 62 1006.9
20260505074557 87 155 0.0 3.0 0.00 0.00 0.00 62 1006.8
20260505073058 88 138 0.0 4.0 0.00 0.00 0.00 61 1006.7
20260505071614 88 138 0.0 4.0 0.00 0.00 0.00 61 1006.9
20260505070111 89 144 0.0 4.0 0.00 0.00 0.00 59 1007.0
20260505064559 89 137 0.0 3.0 0.00 0.00 0.00 60 1007.1
20260505063056 89 203 0.0 9.0 0.00 0.00 0.00 60 1006.8
20260505061559 90 133 1.0 8.0 0.00 0.00 0.00 60 1007.1
20260505060054 89 209 2.0 9.0 0.00 0.00 0.00 60 1007.1
20260505054556 89 143 3.0 10.0 0.00 0.00 0.00 60 1007.3
20260505053101 91 211 0.0 8.0 0.00 0.00 0.00 59 1007.5
20260505051550 91 97 1.0 9.0 0.00 0.00 0.00 59 1007.7
20260505041519 91 157 3.0 8.0 0.00 0.00 0.00 56 1008.5
20260505040032 92 142 2.0 8.0 0.00 0.00 0.00 55 1008.7
20260505034516 91 133 2.0 6.0 0.00 0.00 0.00 55 1008.8
20260505033015 91 92 1.0 8.0 0.00 0.00 0.00 57 1009.2
20260505031512 90 124 4.0 11.0 0.00 0.00 0.00 56 1009.5
20260505030023 90 138 1.0 8.0 0.00 0.00 0.00 58 1009.6
20260505024512 90 139 1.0 9.0 0.00 0.00 0.00 58 1009.6
20260505023009 90 144 0.0 7.0 0.00 0.00 0.00 58 1009.8
20260505021509 89 174 1.0 7.0 0.00 0.00 0.00 59 1010.0
20260505020008 88 232 0.0 4.0 0.00 0.00 0.00 62 1010.2
20260505014507 88 204 0.0 4.0 0.00 0.00 0.00 63 1010.3
20260505013006 89 219 1.0 7.0 0.00 0.00 0.00 61 1010.4
20260505011509 89 355 0.0 5.0 0.00 0.00 0.00 60 1010.3
20260505010003 88 82 0.0 4.0 0.00 0.00 0.00 61 1010.2
20260505004600 88 88 2.0 6.0 0.00 0.00 0.00 61 1010.4
20260505003104 87 66 0.0 4.0 0.00 0.00 0.00 63 1010.4
20260505001553 86 110 0.0 5.0 0.00 0.00 0.00 65 1010.2
20260505000100 86 49 1.0 5.0 0.00 0.00 0.00 66 1010.4
20260504234547 84 68 0.0 5.0 0.00 0.00 0.00 68 1010.4
20260504233045 83 68 0.0 4.0 0.00 0.00 0.00 70 1010.4
20260504231543 83 33 0.0 2.0 0.00 0.00 0.00 70 1010.4
20260504230042 83 51 0.0 2.0 0.00 0.00 0.00 70 1010.2
20260504224538 82 26 0.0 1.0 0.00 0.00 0.00 73 1009.8